Time,TemperatureF,DewpointF,PressureIn,WindDirection,WindDirectionDegrees,WindSpeedMPH,WindSpeedGustMPH,Humidity,HourlyPrecipIn,Conditions,Clouds,dailyrainin,SoftwareType,DateUTC
2013-05-18 00:01:00,45.2,41.6,30.18,SSW,211,0.0,0.0,87,0.00,BKN,,0.00,WeatherDisplay:10.37,2013-05-18 04:01:00,
2013-05-18 00:06:00,45.1,41.5,30.18,SSW,212,0.0,0.0,87,0.00,CLR,,0.00,WeatherDisplay:10.37,2013-05-18 04:06:00,
2013-05-18 00:11:00,45.0,41.4,30.18,SSW,211,0.0,0.0,87,0.00,CLR,,0.00,WeatherDisplay:10.37,2013-05-18 04:11:00,
2013-05-18 00:16:00,44.8,41.5,30.18,SSW,212,0.0,0.0,88,0.00,CLR,,0.00,WeatherDisplay:10.37,2013-05-18 04:16:00,
2013-05-18 00:21:00,44.6,42.4,30.18,SSW,211,0.0,0.0,92,0.00,CLR,,0.00,WeatherDisplay:10.37,2013-05-18 04:21:00,
2013-05-18 00:26:00,44.4,41.1,30.17,SSW,211,0.0,0.0,88,0.00,CLR,,0.00,WeatherDisplay:10.37,2013-05-18 04:26:00,
2013-05-18 00:31:00,44.2,40.9,30.18,SSW,211,0.0,0.0,88,0.00,CLR,,0.00,WeatherDisplay:10.37,2013-05-18 04:31:00,
2013-05-18 00:36:00,44.1,40.8,30.18,SSW,212,0.0,0.0,88,0.00,CLR,,0.00,WeatherDisplay:10.37,2013-05-18 04:36:00,
2013-05-18 00:41:00,44.1,40.8,30.18,SSW,212,0.0,0.0,88,0.00,CLR,,0.00,WeatherDisplay:10.37,2013-05-18 04:41:00,
2013-05-18 00:46:00,44.1,40.8,30.18,SSW,212,0.0,0.0,88,0.00,CLR,,0.00,WeatherDisplay:10.37,2013-05-18 04:46:00,
2013-05-18 00:51:00,44.1,41.1,30.18,SSW,212,0.0,0.0,89,0.00,CLR,,0.00,WeatherDisplay:10.37,2013-05-18 04:51:00,
2013-05-18 00:56:00,44.0,41.0,30.18,SSW,212,0.0,0.0,89,0.00,CLR,,0.00,WeatherDisplay:10.37,2013-05-18 04:56:00,
2013-05-18 01:01:00,43.9,40.9,30.17,SSW,211,0.0,0.0,89,0.00,CLR,,0.00,WeatherDisplay:10.37,2013-05-18 05:01:00,
2013-05-18 01:06:00,43.8,40.8,30.17,SSW,212,0.0,0.0,89,0.00,CLR,,0.00,WeatherDisplay:10.37,2013-05-18 05:06:00,
2013-05-18 01:11:00,43.6,40.6,30.17,SSW,212,0.0,0.0,89,0.00,CLR,,0.00,WeatherDisplay:10.37,2013-05-18 05:11:00,
2013-05-18 01:16:00,43.4,40.4,30.18,SSW,212,0.0,0.0,89,0.00,CLR,,0.00,WeatherDisplay:10.37,2013-05-18 05:16:00,
2013-05-18 01:21:00,43.3,40.3,30.17,SSW,212,0.0,0.0,89,0.00,CLR,,0.00,WeatherDisplay:10.37,2013-05-18 05:21:00,
2013-05-18 01:26:00,43.3,40.3,30.17,SSW,212,0.0,0.0,89,0.00,CLR,,0.00,WeatherDisplay:10.37,2013-05-18 05:26:00,
2013-05-18 01:31:00,43.3,40.3,30.17,SSW,211,0.0,0.0,89,0.00,CLR,,0.00,WeatherDisplay:10.37,2013-05-18 05:31:00,
2013-05-18 01:36:00,43.2,40.2,30.18,SSW,211,0.0,0.0,89,0.00,CLR,,0.00,WeatherDisplay:10.37,2013-05-18 05:36:00,
2013-05-18 01:41:00,43.1,40.1,30.18,SSW,212,0.0,0.0,89,0.00,CLR,,0.00,WeatherDisplay:10.37,2013-05-18 05:41:00,
2013-05-18 01:46:00,43.1,40.4,30.18,SSW,212,0.0,0.0,90,0.00,CLR,,0.00,WeatherDisplay:10.37,2013-05-18 05:46:00,
2013-05-18 01:51:00,43.2,40.5,30.18,SSW,212,0.0,0.0,90,0.00,CLR,,0.00,WeatherDisplay:10.37,2013-05-18 05:51:00,
2013-05-18 01:52:00,43.2,40.5,30.18,SSW,212,0.0,0.0,90,0.00,CLR,,0.00,WeatherDisplay:10.37,2013-05-18 05:52:00,
2013-05-18 06:10:00,47.8,45.3,30.17,SSW,212,0.0,0.0,91,0.00,CLR,,0.00,WeatherDisplay:10.37,2013-05-18 10:10:00,
2013-05-18 06:15:00,47.9,45.4,30.17,West,263,0.1,1.2,91,0.00,BKN,,0.00,WeatherDisplay:10.37,2013-05-18 10:15:00,
2013-05-18 06:20:00,48.3,45.8,30.17,SW,215,0.2,0.0,91,0.00,BKN,,0.00,WeatherDisplay:10.37,2013-05-18 10:20:00,
2013-05-18 06:25:00,48.5,46.0,30.17,SW,215,0.0,0.0,91,0.00,BKN,,0.00,WeatherDisplay:10.37,2013-05-18 10:25:00,
2013-05-18 06:30:00,48.9,46.1,30.18,SW,215,0.0,1.2,90,0.00,BKN,,0.00,WeatherDisplay:10.37,2013-05-18 10:30:00,
2013-05-18 06:35:00,49.1,46.0,30.18,SW,215,0.0,0.0,89,0.00,BKN,,0.00,WeatherDisplay:10.37,2013-05-18 10:35:00,
2013-05-18 06:40:00,49.2,46.1,30.18,SW,215,0.1,1.2,89,0.00,BKN,,0.00,WeatherDisplay:10.37,2013-05-18 10:40:00,
2013-05-18 06:45:00,49.4,45.7,30.18,SW,216,0.0,0.0,87,0.00,BKN,,0.00,WeatherDisplay:10.37,2013-05-18 10:45:00,
2013-05-18 06:50:00,49.7,45.4,30.18,SW,215,0.1,1.2,85,0.00,BKN,,0.00,WeatherDisplay:10.37,2013-05-18 10:50:00,
2013-05-18 06:55:00,50.1,44.8,30.18,SW,215,0.0,1.2,82,0.00,BKN,,0.00,WeatherDisplay:10.37,2013-05-18 10:55:00,
2013-05-18 07:00:00,50.5,44.2,30.18,SW,219,0.3,1.2,79,0.00,BKN,,0.00,WeatherDisplay:10.37,2013-05-18 11:00:00,
2013-05-18 07:05:00,51.3,44.0,30.18,East,84,1.1,4.6,76,0.00,OVC,,0.00,WeatherDisplay:10.37,2013-05-18 11:05:00,
2013-05-18 07:10:00,51.9,43.2,30.18,NE,56,0.2,0.0,72,0.00,OVC,,0.00,WeatherDisplay:10.37,2013-05-18 11:10:00,
2013-05-18 07:15:00,52.5,43.0,30.18,NE,44,0.1,2.3,70,0.00,OVC,,0.00,WeatherDisplay:10.37,2013-05-18 11:15:00,
2013-05-18 07:20:00,53.0,42.7,30.19,ENE,76,2.4,6.9,68,0.00,OVC,,0.00,WeatherDisplay:10.37,2013-05-18 11:20:00,
2013-05-18 07:25:00,53.5,42.8,30.19,NE,55,1.5,1.5,67,0.00,OVC,,0.00,WeatherDisplay:10.37,2013-05-18 11:25:00,
2013-05-18 07:30:00,53.9,42.8,30.19,NE,55,0.0,0.0,66,0.00,OVC,,0.00,WeatherDisplay:10.37,2013-05-18 11:30:00,
2013-05-18 07:36:00,54.2,42.7,30.20,ENE,59,1.3,5.0,65,0.00,OVC,,0.00,WeatherDisplay:10.37,2013-05-18 11:36:00,
2013-05-18 07:41:00,54.4,43.3,30.20,ENE,62,0.0,0.0,66,0.00,OVC,,0.00,WeatherDisplay:10.37,2013-05-18 11:41:00,
2013-05-18 07:46:00,54.5,43.0,30.20,ENE,62,0.0,0.0,65,0.00,OVC,,0.00,WeatherDisplay:10.37,2013-05-18 11:46:00,
2013-05-18 07:51:00,54.7,43.6,30.20,ENE,63,0.0,0.0,66,0.00,OVC,,0.00,WeatherDisplay:10.37,2013-05-18 11:51:00,
2013-05-18 07:56:00,54.8,43.7,30.20,ENE,60,0.6,0.0,66,0.00,OVC,,0.00,WeatherDisplay:10.37,2013-05-18 11:56:00,
2013-05-18 08:01:00,54.8,43.7,30.19,ENE,76,0.0,1.0,66,0.00,OVC,,0.00,WeatherDisplay:10.37,2013-05-18 12:01:00,
2013-05-18 08:06:00,55.0,43.4,30.19,East,80,0.0,3.5,65,0.00,BKN,,0.00,WeatherDisplay:10.37,2013-05-18 12:06:00,
2013-05-18 08:11:00,55.1,43.9,30.19,ENE,57,1.5,3.5,66,0.00,BKN,,0.00,WeatherDisplay:10.37,2013-05-18 12:11:00,
2013-05-18 08:16:00,55.3,43.7,30.19,NE,55,0.0,0.0,65,0.00,BKN,,0.00,WeatherDisplay:10.37,2013-05-18 12:16:00,
2013-05-18 08:21:00,55.5,43.9,30.19,NNW,346,0.0,1.2,65,0.00,BKN,,0.00,WeatherDisplay:10.37,2013-05-18 12:21:00,
2013-05-18 08:26:00,55.7,43.7,30.19,North,355,0.0,0.0,64,0.00,BKN,,0.00,WeatherDisplay:10.37,2013-05-18 12:26:00,
2013-05-18 08:31:00,56.0,44.4,30.19,ENE,74,0.0,1.2,65,0.00,BKN,,0.00,WeatherDisplay:10.37,2013-05-18 12:31:00,
2013-05-18 08:36:00,56.3,44.3,30.20,ENE,74,0.0,1.2,64,0.00,BKN,,0.00,WeatherDisplay:10.37,2013-05-18 12:36:00,
2013-05-18 08:41:00,56.7,44.7,30.20,ENE,71,0.4,0.0,64,0.00,BKN,,0.00,WeatherDisplay:10.37,2013-05-18 12:41:00,
2013-05-18 08:46:00,56.9,44.4,30.19,ENE,58,0.0,0.0,63,0.00,BKN,,0.00,WeatherDisplay:10.37,2013-05-18 12:46:00,
2013-05-18 08:51:00,57.2,44.3,30.20,East,86,0.3,2.3,62,0.00,BKN,,0.00,WeatherDisplay:10.37,2013-05-18 12:51:00,
2013-05-18 08:56:00,57.6,45.1,30.19,East,79,0.3,0.0,63,0.00,BKN,,0.00,WeatherDisplay:10.37,2013-05-18 12:56:00,
2013-05-18 09:01:00,57.9,44.5,30.20,NE,49,3.4,9.2,61,0.00,BKN,,0.00,WeatherDisplay:10.37,2013-05-18 13:01:00,
2013-05-18 09:06:00,58.2,44.8,30.19,East,92,1.2,4.6,61,0.00,BKN,,0.00,WeatherDisplay:10.37,2013-05-18 13:06:00,
2013-05-18 09:11:00,58.8,44.9,30.19,East,94,0.4,1.2,60,0.00,BKN,,0.00,WeatherDisplay:10.37,2013-05-18 13:11:00,
2013-05-18 09:16:00,59.0,44.7,30.19,NE,44,1.2,6.0,59,0.00,BKN,,0.00,WeatherDisplay:10.37,2013-05-18 13:16:00,
2013-05-18 09:21:00,59.3,45.4,30.19,ENE,66,1.4,3.5,60,0.00,BKN,,0.00,WeatherDisplay:10.37,2013-05-18 13:21:00,
2013-05-18 09:26:00,59.7,45.8,30.19,NE,45,2.7,4.6,60,0.00,BKN,,0.00,WeatherDisplay:10.37,2013-05-18 13:26:00,
2013-05-18 09:31:00,60.1,45.3,30.18,ENE,61,3.4,4.6,58,0.00,BKN,,0.00,WeatherDisplay:10.37,2013-05-18 13:31:00,
2013-05-18 09:36:00,60.4,45.1,30.18,ESE,103,2.9,4.6,57,0.00,BKN,,0.00,WeatherDisplay:10.37,2013-05-18 13:36:00,
2013-05-18 09:41:00,60.6,46.2,30.18,NNE,29,2.1,3.0,59,0.00,BKN,,0.00,WeatherDisplay:10.37,2013-05-18 13:41:00,
2013-05-18 09:46:00,60.6,45.7,30.18,ENE,75,0.2,3.5,58,0.00,BKN,,0.00,WeatherDisplay:10.37,2013-05-18 13:46:00,
2013-05-18 09:51:00,60.5,45.6,30.18,East,92,3.8,10.4,58,0.00,BKN,,0.00,WeatherDisplay:10.37,2013-05-18 13:51:00,
2013-05-18 09:56:00,60.3,45.5,30.18,NE,43,0.4,6.9,58,0.00,BKN,,0.00,WeatherDisplay:10.37,2013-05-18 13:56:00,
2013-05-18 10:01:00,60.2,45.8,30.18,NE,50,3.8,6.9,59,0.00,OVC,,0.00,WeatherDisplay:10.37,2013-05-18 14:01:00,
2013-05-18 10:06:00,60.1,45.7,30.18,NE,42,3.4,3.5,59,0.00,OVC,,0.00,WeatherDisplay:10.37,2013-05-18 14:06:00,
2013-05-18 10:11:00,60.1,46.2,30.18,NE,52,2.0,3.0,60,0.00,OVC,,0.00,WeatherDisplay:10.37,2013-05-18 14:11:00,
2013-05-18 10:16:00,60.1,45.7,30.18,NE,39,2.6,6.9,59,0.00,OVC,,0.00,WeatherDisplay:10.37,2013-05-18 14:16:00,
2013-05-18 10:21:00,60.2,46.3,30.18,NE,44,1.0,4.0,60,0.00,OVC,,0.00,WeatherDisplay:10.37,2013-05-18 14:21:00,
2013-05-18 10:26:00,60.5,46.1,30.18,NE,53,3.0,6.9,59,0.00,OVC,,0.00,WeatherDisplay:10.37,2013-05-18 14:26:00,
2013-05-18 10:31:00,60.8,45.9,30.18,ENE,57,3.8,8.1,58,0.00,OVC,,0.00,WeatherDisplay:10.37,2013-05-18 14:31:00,
2013-05-18 10:36:00,60.9,45.6,30.18,ENE,58,1.0,3.0,57,0.00,OVC,,0.00,WeatherDisplay:10.37,2013-05-18 14:36:00,
2013-05-18 10:41:00,61.2,45.8,30.18,ENE,69,2.9,3.5,57,0.00,OVC,,0.00,WeatherDisplay:10.37,2013-05-18 14:41:00,
2013-05-18 10:46:00,61.3,46.4,30.18,NE,52,2.3,5.8,58,0.00,OVC,,0.00,WeatherDisplay:10.37,2013-05-18 14:46:00,
2013-05-18 10:51:00,61.4,46.5,30.18,NE,53,2.0,5.0,58,0.00,OVC,,0.00,WeatherDisplay:10.37,2013-05-18 14:51:00,
2013-05-18 10:56:00,61.7,46.8,30.18,East,80,2.5,4.6,58,0.00,OVC,,0.00,WeatherDisplay:10.37,2013-05-18 14:56:00,
2013-05-18 11:01:00,62.1,47.1,30.18,NE,36,1.9,4.6,58,0.00,BKN,,0.00,WeatherDisplay:10.37,2013-05-18 15:01:00,
2013-05-18 11:06:00,62.5,46.6,30.18,NE,51,3.7,8.1,56,0.00,BKN,,0.00,WeatherDisplay:10.37,2013-05-18 15:06:00,
2013-05-18 11:11:00,62.8,46.8,30.18,NE,56,3.0,10.0,56,0.00,BKN,,0.00,WeatherDisplay:10.37,2013-05-18 15:11:00,
2013-05-18 11:16:00,63.0,46.6,30.18,ESE,120,2.0,4.6,55,0.00,BKN,,0.00,WeatherDisplay:10.37,2013-05-18 15:16:00,
2013-05-18 11:21:00,63.2,46.8,30.18,ENE,60,5.0,10.0,55,0.00,BKN,,0.00,WeatherDisplay:10.37,2013-05-18 15:21:00,
2013-05-18 11:26:00,63.4,47.4,30.18,NE,52,2.0,4.6,56,0.00,BKN,,0.00,WeatherDisplay:10.37,2013-05-18 15:26:00,
2013-05-18 11:31:00,63.6,47.1,30.18,ENE,57,3.0,8.0,55,0.00,BKN,,0.00,WeatherDisplay:10.37,2013-05-18 15:31:00,
2013-05-18 11:36:00,63.8,47.8,30.17,NE,40,5.2,9.2,56,0.00,BKN,,0.00,WeatherDisplay:10.37,2013-05-18 15:36:00,
2013-05-18 11:41:00,63.9,48.4,30.17,NE,38,0.4,3.5,57,0.00,BKN,,0.00,WeatherDisplay:10.37,2013-05-18 15:41:00,
2013-05-18 11:46:00,64.2,47.2,30.17,NE,47,7.0,12.0,54,0.00,BKN,,0.00,WeatherDisplay:10.37,2013-05-18 15:46:00,
2013-05-18 11:51:00,64.6,48.5,30.17,ENE,66,5.0,5.0,56,0.00,BKN,,0.00,WeatherDisplay:10.37,2013-05-18 15:51:00,
2013-05-18 11:56:00,65.3,48.2,30.17,NNE,28,6.4,11.5,54,0.00,BKN,,0.00,WeatherDisplay:10.37,2013-05-18 15:56:00,
2013-05-18 12:01:00,65.5,48.5,30.17,NE,52,1.0,4.0,54,0.00,BKN,,0.00,WeatherDisplay:10.37,2013-05-18 16:01:00,
2013-05-18 12:06:00,66.1,49.5,30.17,East,82,1.5,6.9,55,0.00,BKN,,0.00,WeatherDisplay:10.37,2013-05-18 16:06:00,
2013-05-18 12:11:00,66.6,48.9,30.17,ENE,64,7.0,10.0,53,0.00,BKN,,0.00,WeatherDisplay:10.37,2013-05-18 16:11:00,
2013-05-18 12:16:00,66.6,47.9,30.16,NE,47,6.0,10.0,51,0.00,BKN,,0.00,WeatherDisplay:10.37,2013-05-18 16:16:00,
2013-05-18 12:21:00,66.7,48.0,30.16,NE,36,2.2,3.5,51,0.00,BKN,,0.00,WeatherDisplay:10.37,2013-05-18 16:21:00,
2013-05-18 12:26:00,66.8,47.0,30.16,NE,44,7.0,9.0,49,0.00,BKN,,0.00,WeatherDisplay:10.37,2013-05-18 16:26:00,
2013-05-18 12:31:00,66.9,48.2,30.16,NE,53,1.6,5.8,51,0.00,BKN,,0.00,WeatherDisplay:10.37,2013-05-18 16:31:00,
2013-05-18 12:36:00,67.2,48.5,30.16,SE,129,0.4,4.6,51,0.00,BKN,,0.00,WeatherDisplay:10.37,2013-05-18 16:36:00,
2013-05-18 12:41:00,67.9,50.7,30.15,ENE,73,1.0,5.0,54,0.00,BKN,,0.00,WeatherDisplay:10.37,2013-05-18 16:41:00,
2013-05-18 12:46:00,69.0,50.6,30.15,NE,44,2.4,8.1,52,0.00,BKN,,0.00,WeatherDisplay:10.37,2013-05-18 16:46:00,
2013-05-18 12:51:00,69.2,47.5,30.16,East,95,1.9,4.6,46,0.00,BKN,,0.00,WeatherDisplay:10.37,2013-05-18 16:51:00,
2013-05-18 12:56:00,69.0,48.5,30.16,ENE,76,3.0,5.0,48,0.00,BKN,,0.00,WeatherDisplay:10.37,2013-05-18 16:56:00,
2013-05-18 13:01:00,68.9,48.4,30.15,NE,51,5.8,11.5,48,0.00,BKN,,0.00,WeatherDisplay:10.37,2013-05-18 17:01:00,
2013-05-18 13:06:00,68.8,47.7,30.15,NE,55,5.5,9.2,47,0.00,BKN,,0.00,WeatherDisplay:10.37,2013-05-18 17:06:00,
2013-05-18 13:11:00,68.7,47.6,30.15,NE,42,7.0,9.0,47,0.00,BKN,,0.00,WeatherDisplay:10.37,2013-05-18 17:11:00,
2013-05-18 13:16:00,68.5,47.5,30.15,NE,48,7.2,9.2,47,0.00,BKN,,0.00,WeatherDisplay:10.37,2013-05-18 17:16:00,
2013-05-18 13:21:00,68.4,48.5,30.15,NE,47,2.6,8.1,49,0.00,BKN,,0.00,WeatherDisplay:10.37,2013-05-18 17:21:00,
2013-05-18 13:26:00,68.5,47.5,30.15,NE,46,5.0,6.0,47,0.00,BKN,,0.00,WeatherDisplay:10.37,2013-05-18 17:26:00,
2013-05-18 13:31:00,68.8,49.4,30.15,East,87,4.2,8.0,50,0.00,BKN,,0.00,WeatherDisplay:10.37,2013-05-18 17:31:00,
2013-05-18 13:36:00,69.0,48.5,30.15,ENE,62,5.0,7.0,48,0.00,BKN,,0.00,WeatherDisplay:10.37,2013-05-18 17:36:00,
2013-05-18 13:41:00,69.3,47.6,30.14,ESE,115,0.8,4.6,46,0.00,BKN,,0.00,WeatherDisplay:10.37,2013-05-18 17:41:00,
2013-05-18 13:46:00,69.6,47.9,30.14,ENE,70,2.6,6.9,46,0.00,BKN,,0.00,WeatherDisplay:10.37,2013-05-18 17:46:00,
2013-05-18 13:51:00,69.8,48.1,30.14,ENE,72,8.0,14.0,46,0.00,BKN,,0.00,WeatherDisplay:10.37,2013-05-18 17:51:00,
2013-05-18 13:56:00,69.6,47.9,30.14,ENE,62,5.2,9.2,46,0.00,BKN,,0.00,WeatherDisplay:10.37,2013-05-18 17:56:00,
2013-05-18 14:01:00,69.6,47.9,30.13,ESE,118,3.5,6.9,46,0.00,BKN,,0.00,WeatherDisplay:10.37,2013-05-18 18:01:00,
2013-05-18 14:06:00,69.6,47.3,30.13,ENE,71,0.4,1.2,45,0.00,BKN,,0.00,WeatherDisplay:10.37,2013-05-18 18:06:00,
2013-05-18 14:11:00,69.7,48.0,30.13,NE,41,1.9,9.2,46,0.00,BKN,,0.00,WeatherDisplay:10.37,2013-05-18 18:11:00,
2013-05-18 14:16:00,70.0,48.3,30.13,NNE,28,4.6,5.8,46,0.00,BKN,,0.00,WeatherDisplay:10.37,2013-05-18 18:16:00,
2013-05-18 14:21:00,70.2,49.6,30.13,NE,49,2.0,5.0,48,0.00,BKN,,0.00,WeatherDisplay:10.37,2013-05-18 18:21:00,
2013-05-18 14:26:00,70.4,47.4,30.13,ENE,59,4.0,11.5,44,0.00,BKN,,0.00,WeatherDisplay:10.37,2013-05-18 18:26:00,
2013-05-18 14:31:00,70.4,49.2,30.12,NE,49,1.0,6.0,47,0.00,BKN,,0.00,WeatherDisplay:10.37,2013-05-18 18:31:00,
2013-05-18 14:36:00,70.6,48.2,30.12,NE,38,5.1,11.5,45,0.00,BKN,,0.00,WeatherDisplay:10.37,2013-05-18 18:36:00,
2013-05-18 14:41:00,70.7,47.7,30.12,NE,39,3.4,8.1,44,0.00,BKN,,0.00,WeatherDisplay:10.37,2013-05-18 18:41:00,
2013-05-18 14:46:00,70.9,49.1,30.12,NE,43,7.0,12.0,46,0.00,BKN,,0.00,WeatherDisplay:10.37,2013-05-18 18:46:00,
2013-05-18 14:51:00,71.2,48.2,30.12,NE,48,3.0,6.0,44,0.00,BKN,,0.00,WeatherDisplay:10.37,2013-05-18 18:51:00,
2013-05-18 14:56:00,71.3,49.4,30.12,NE,54,3.0,9.0,46,0.00,BKN,,0.00,WeatherDisplay:10.37,2013-05-18 18:56:00,
2013-05-18 15:01:00,71.4,50.1,30.12,ENE,57,1.0,8.0,47,0.00,BKN,,0.00,WeatherDisplay:10.37,2013-05-18 19:01:00,
2013-05-18 15:06:00,71.9,49.4,30.12,NNE,18,3.9,9.2,45,0.00,BKN,,0.00,WeatherDisplay:10.37,2013-05-18 19:06:00,
2013-05-18 15:11:00,72.1,49.0,30.11,NE,38,8.2,11.5,44,0.00,BKN,,0.00,WeatherDisplay:10.37,2013-05-18 19:11:00,
2013-05-18 15:16:00,71.8,49.3,30.11,NNE,31,5.0,8.0,45,0.00,BKN,,0.00,WeatherDisplay:10.37,2013-05-18 19:16:00,
2013-05-18 15:21:00,71.6,47.9,30.10,NNE,33,6.4,9.2,43,0.00,BKN,,0.00,WeatherDisplay:10.37,2013-05-18 19:21:00,
2013-05-18 15:26:00,71.6,49.1,30.11,NE,39,2.0,8.0,45,0.00,BKN,,0.00,WeatherDisplay:10.37,2013-05-18 19:26:00,
2013-05-18 15:31:00,71.7,49.2,30.11,ENE,70,2.0,8.0,45,0.00,BKN,,0.00,WeatherDisplay:10.37,2013-05-18 19:31:00,
2013-05-18 15:36:00,72.0,48.3,30.11,NE,40,3.7,8.1,43,0.00,BKN,,0.00,WeatherDisplay:10.37,2013-05-18 19:36:00,
2013-05-18 15:41:00,72.0,48.3,30.11,NE,40,3.6,3.6,43,0.00,BKN,,0.00,WeatherDisplay:10.37,2013-05-18 19:41:00,
2013-05-18 15:46:00,72.1,50.8,30.10,ENE,77,0.0,2.0,47,0.00,BKN,,0.00,WeatherDisplay:10.37,2013-05-18 19:46:00,
2013-05-18 15:51:00,72.3,49.2,30.10,ESE,113,0.6,6.9,44,0.00,BKN,,0.00,WeatherDisplay:10.37,2013-05-18 19:51:00,
2013-05-18 15:56:00,72.4,48.6,30.10,East,97,1.0,7.0,43,0.00,BKN,,0.00,WeatherDisplay:10.37,2013-05-18 19:56:00,
2013-05-18 16:01:00,72.4,48.7,30.10,NE,56,5.0,8.0,43,0.00,BKN,,0.00,WeatherDisplay:10.37,2013-05-18 20:01:00,
2013-05-18 16:06:00,72.3,49.2,30.10,SSE,149,1.1,9.2,44,0.00,BKN,,0.00,WeatherDisplay:10.37,2013-05-18 20:06:00,
2013-05-18 16:11:00,72.4,49.3,30.10,NE,44,6.0,9.2,44,0.00,BKN,,0.00,WeatherDisplay:10.37,2013-05-18 20:11:00,
2013-05-18 16:16:00,72.5,49.3,30.10,East,86,4.9,8.1,44,0.00,BKN,,0.00,WeatherDisplay:10.37,2013-05-18 20:16:00,
2013-05-18 16:21:00,72.5,49.9,30.10,ENE,74,1.6,11.5,45,0.00,BKN,,0.00,WeatherDisplay:10.37,2013-05-18 20:21:00,
2013-05-18 16:26:00,72.4,48.6,30.10,NE,55,3.0,12.0,43,0.00,BKN,,0.00,WeatherDisplay:10.37,2013-05-18 20:26:00,
2013-05-18 16:31:00,72.2,49.7,30.10,NNE,32,0.3,3.5,45,0.00,BKN,,0.00,WeatherDisplay:10.37,2013-05-18 20:31:00,
2013-05-18 16:36:00,72.1,48.3,30.10,NE,49,6.0,8.0,43,0.00,BKN,,0.00,WeatherDisplay:10.37,2013-05-18 20:36:00,
2013-05-18 16:41:00,71.7,49.2,30.09,NE,52,2.0,7.0,45,0.00,BKN,,0.00,WeatherDisplay:10.37,2013-05-18 20:41:00,
2013-05-18 16:46:00,71.8,49.3,30.09,NNE,30,5.4,8.1,45,0.00,BKN,,0.00,WeatherDisplay:10.37,2013-05-18 20:46:00,
2013-05-18 16:51:00,71.9,49.4,30.09,NE,44,5.0,8.0,45,0.00,BKN,,0.00,WeatherDisplay:10.37,2013-05-18 20:51:00,
2013-05-18 16:56:00,72.1,49.0,30.09,NE,37,2.0,6.0,44,0.00,BKN,,0.00,WeatherDisplay:10.37,2013-05-18 20:56:00,
2013-05-18 17:01:00,72.5,49.3,30.09,East,84,4.1,9.2,44,0.00,BKN,,0.00,WeatherDisplay:10.37,2013-05-18 21:01:00,
2013-05-18 17:06:00,72.6,48.8,30.09,ENE,59,6.0,9.2,43,0.00,BKN,,0.00,WeatherDisplay:10.37,2013-05-18 21:06:00,
2013-05-18 17:11:00,72.7,50.1,30.09,NE,52,3.7,3.7,45,0.00,BKN,,0.00,WeatherDisplay:10.37,2013-05-18 21:11:00,
2013-05-18 17:16:00,72.5,49.3,30.09,NNE,29,3.3,5.8,44,0.00,BKN,,0.00,WeatherDisplay:10.37,2013-05-18 21:16:00,
2013-05-18 17:21:00,72.6,50.6,30.09,NE,45,1.0,1.0,46,0.00,BKN,,0.00,WeatherDisplay:10.37,2013-05-18 21:21:00,
2013-05-18 17:26:00,72.8,51.4,30.09,NE,34,6.9,11.5,47,0.00,BKN,,0.00,WeatherDisplay:10.37,2013-05-18 21:26:00,
2013-05-18 17:31:00,72.9,50.9,30.09,NE,44,2.0,5.0,46,0.00,BKN,,0.00,WeatherDisplay:10.37,2013-05-18 21:31:00,
2013-05-18 17:36:00,73.0,50.4,30.09,NE,50,3.0,6.0,45,0.00,BKN,,0.00,WeatherDisplay:10.37,2013-05-18 21:36:00,
2013-05-18 17:41:00,72.8,50.8,30.09,NE,51,5.9,11.5,46,0.00,BKN,,0.00,WeatherDisplay:10.37,2013-05-18 21:41:00,
2013-05-18 17:46:00,72.3,50.9,30.09,NNE,33,5.0,7.0,47,0.00,BKN,,0.00,WeatherDisplay:10.37,2013-05-18 21:46:00,
2013-05-18 17:51:00,71.7,51.0,30.09,NNE,33,7.0,10.0,48,0.00,BKN,,0.00,WeatherDisplay:10.37,2013-05-18 21:51:00,
2013-05-18 17:56:00,71.2,50.5,30.09,NNE,28,4.4,11.5,48,0.00,BKN,,0.00,WeatherDisplay:10.37,2013-05-18 21:56:00,
2013-05-18 18:01:00,71.0,50.9,30.09,NE,39,3.8,10.4,49,0.00,BKN,,0.00,WeatherDisplay:10.37,2013-05-18 22:01:00,
2013-05-18 18:06:00,70.9,50.8,30.09,NNE,19,5.2,9.2,49,0.00,BKN,,0.00,WeatherDisplay:10.37,2013-05-18 22:06:00,
2013-05-18 18:11:00,70.6,51.1,30.08,NNE,26,5.6,10.4,50,0.00,BKN,,0.00,WeatherDisplay:10.37,2013-05-18 22:11:00,
2013-05-18 18:16:00,70.4,51.4,30.08,NE,35,5.0,8.0,51,0.00,BKN,,0.00,WeatherDisplay:10.37,2013-05-18 22:16:00,
2013-05-18 18:21:00,70.6,51.6,30.08,NE,38,5.4,10.4,51,0.00,BKN,,0.00,WeatherDisplay:10.37,2013-05-18 22:21:00,
2013-05-18 18:26:00,70.6,51.6,30.08,NE,41,3.8,6.9,51,0.00,BKN,,0.00,WeatherDisplay:10.37,2013-05-18 22:26:00,
2013-05-18 18:31:00,70.7,52.2,30.08,NE,34,2.0,0.0,52,0.00,BKN,,0.00,WeatherDisplay:10.37,2013-05-18 22:31:00,
2013-05-18 18:36:00,71.1,52.6,30.08,ENE,71,0.3,3.5,52,0.00,BKN,,0.00,WeatherDisplay:10.37,2013-05-18 22:36:00,
2013-05-18 18:41:00,71.3,51.1,30.08,NE,44,4.7,8.1,49,0.00,BKN,,0.00,WeatherDisplay:10.37,2013-05-18 22:41:00,
2013-05-18 18:46:00,71.2,51.6,30.08,NE,42,5.0,5.0,50,0.00,BKN,,0.00,WeatherDisplay:10.37,2013-05-18 22:46:00,
2013-05-18 18:51:00,71.3,51.7,30.08,ENE,75,0.1,6.9,50,0.00,BKN,,0.00,WeatherDisplay:10.37,2013-05-18 22:51:00,
2013-05-18 18:56:00,71.3,51.1,30.07,NE,36,2.2,5.0,49,0.00,BKN,,0.00,WeatherDisplay:10.37,2013-05-18 22:56:00,
2013-05-18 19:01:00,71.1,50.9,30.08,NE,43,5.0,5.0,49,0.00,BKN,,0.00,WeatherDisplay:10.37,2013-05-18 23:01:00,
2013-05-18 19:06:00,70.8,51.2,30.08,NE,51,2.5,6.9,50,0.00,BKN,,0.00,WeatherDisplay:10.37,2013-05-18 23:06:00,
2013-05-18 19:11:00,70.5,51.5,30.08,NE,44,1.0,7.0,51,0.00,BKN,,0.00,WeatherDisplay:10.37,2013-05-18 23:11:00,
2013-05-18 19:16:00,70.1,51.1,30.08,NNE,25,3.7,5.8,51,0.00,BKN,,0.00,WeatherDisplay:10.37,2013-05-18 23:16:00,
2013-05-18 19:21:00,69.6,50.7,30.08,ENE,72,2.3,5.8,51,0.00,BKN,,0.00,WeatherDisplay:10.37,2013-05-18 23:21:00,
2013-05-18 19:26:00,69.3,50.9,30.08,ENE,60,2.0,9.0,52,0.00,BKN,,0.00,WeatherDisplay:10.37,2013-05-18 23:26:00,
2013-05-18 19:31:00,69.0,50.6,30.08,NE,46,5.8,8.1,52,0.00,BKN,,0.00,WeatherDisplay:10.37,2013-05-18 23:31:00,
2013-05-18 19:36:00,68.6,50.8,30.08,NNE,32,3.0,3.5,53,0.00,BKN,,0.00,WeatherDisplay:10.37,2013-05-18 23:36:00,
2013-05-18 19:41:00,68.3,50.5,30.09,NE,42,3.0,6.0,53,0.00,BKN,,0.00,WeatherDisplay:10.37,2013-05-18 23:41:00,
2013-05-18 19:46:00,67.7,50.5,30.09,NE,45,1.0,5.0,54,0.00,BKN,,0.00,WeatherDisplay:10.37,2013-05-18 23:46:00,
2013-05-18 19:51:00,67.2,50.0,30.09,NE,42,2.0,5.0,54,0.00,BKN,,0.00,WeatherDisplay:10.37,2013-05-18 23:51:00,
2013-05-18 19:56:00,66.7,49.6,30.09,NE,41,2.0,5.0,54,0.00,BKN,,0.00,WeatherDisplay:10.37,2013-05-18 23:56:00,
2013-05-18 20:01:00,66.3,49.6,30.09,NE,42,5.0,7.0,55,0.00,BKN,,0.00,WeatherDisplay:10.37,2013-05-19 00:01:00,
2013-05-18 20:06:00,65.7,49.6,30.09,NNE,30,4.0,7.0,56,0.00,BKN,,0.00,WeatherDisplay:10.37,2013-05-19 00:06:00,
2013-05-18 20:11:00,65.3,49.7,30.09,NE,45,0.0,0.0,57,0.00,BKN,,0.00,WeatherDisplay:10.37,2013-05-19 00:11:00,
2013-05-18 20:16:00,64.9,49.3,30.09,NE,49,0.0,1.2,57,0.00,BKN,,0.00,WeatherDisplay:10.37,2013-05-19 00:16:00,
2013-05-18 20:21:00,64.6,50.4,30.09,NE,50,0.0,0.0,60,0.00,BKN,,0.00,WeatherDisplay:10.37,2013-05-19 00:21:00,
2013-05-18 20:26:00,64.0,49.8,30.09,NE,37,4.0,4.6,60,0.00,BKN,,0.00,WeatherDisplay:10.37,2013-05-19 00:26:00,
2013-05-18 20:31:00,63.4,50.1,30.09,NE,37,1.1,2.3,62,0.00,BKN,,0.00,WeatherDisplay:10.37,2013-05-19 00:31:00,
2013-05-18 20:36:00,63.1,50.3,30.09,NE,38,0.0,2.0,63,0.00,BKN,,0.00,WeatherDisplay:10.37,2013-05-19 00:36:00,
2013-05-18 20:41:00,62.6,49.9,30.09,NE,42,0.0,2.0,63,0.00,BKN,,0.00,WeatherDisplay:10.37,2013-05-19 00:41:00,
2013-05-18 20:46:00,62.3,49.6,30.09,NE,45,0.0,3.0,63,0.00,BKN,,0.00,WeatherDisplay:10.37,2013-05-19 00:46:00,
2013-05-18 20:51:00,62.2,49.4,30.09,NE,46,2.0,3.0,63,0.00,BKN,,0.00,WeatherDisplay:10.37,2013-05-19 00:51:00,
2013-05-18 20:56:00,61.8,49.1,30.09,NE,38,0.1,5.8,63,0.00,BKN,,0.00,WeatherDisplay:10.37,2013-05-19 00:56:00,
2013-05-18 21:01:00,61.5,48.8,30.09,NE,42,2.8,4.6,63,0.00,BKN,,0.00,WeatherDisplay:10.37,2013-05-19 01:01:00,
2013-05-18 21:06:00,61.4,48.7,30.09,NE,42,1.2,3.5,63,0.00,BKN,,0.00,WeatherDisplay:10.37,2013-05-19 01:06:00,
2013-05-18 21:11:00,61.4,48.3,30.09,NE,34,4.1,4.1,62,0.00,BKN,,0.00,WeatherDisplay:10.37,2013-05-19 01:11:00,
2013-05-18 21:16:00,61.4,48.3,30.09,NE,36,1.0,1.0,62,0.00,BKN,,0.00,WeatherDisplay:10.37,2013-05-19 01:16:00,
2013-05-18 21:21:00,61.3,49.0,30.09,NE,38,0.9,3.0,64,0.00,BKN,,0.00,WeatherDisplay:10.37,2013-05-19 01:21:00,
2013-05-18 21:26:00,61.1,48.0,30.09,NE,42,1.0,4.0,62,0.00,BKN,,0.00,WeatherDisplay:10.37,2013-05-19 01:26:00,
2013-05-18 21:31:00,61.0,47.9,30.10,NE,48,1.0,0.0,62,0.00,BKN,,0.00,WeatherDisplay:10.37,2013-05-19 01:31:00,
2013-05-18 21:36:00,60.9,47.8,30.10,NE,52,0.0,3.0,62,0.00,BKN,,0.00,WeatherDisplay:10.37,2013-05-19 01:36:00,
2013-05-18 21:41:00,60.8,47.7,30.10,NE,52,0.0,3.5,62,0.00,BKN,,0.00,WeatherDisplay:10.37,2013-05-19 01:41:00,
2013-05-18 21:46:00,60.7,47.2,30.10,NE,44,2.0,3.0,61,0.00,BKN,,0.00,WeatherDisplay:10.37,2013-05-19 01:46:00,
2013-05-18 21:51:00,60.6,47.1,30.10,NE,34,0.6,4.0,61,0.00,BKN,,0.00,WeatherDisplay:10.37,2013-05-19 01:51:00,
2013-05-18 21:56:00,60.5,47.0,30.10,NNE,33,0.0,3.0,61,0.00,BKN,,0.00,WeatherDisplay:10.37,2013-05-19 01:56:00,
2013-05-18 22:01:00,60.4,46.9,30.09,NE,40,0.0,1.0,61,0.00,-RA,,0.00,WeatherDisplay:10.37,2013-05-19 02:01:00,
2013-05-18 22:06:00,60.2,46.7,30.09,NE,43,0.0,1.2,61,0.00,-RA,,0.00,WeatherDisplay:10.37,2013-05-19 02:06:00,
2013-05-18 22:11:00,60.1,46.6,30.09,NE,43,0.0,2.0,61,0.00,-RA,,0.00,WeatherDisplay:10.37,2013-05-19 02:11:00,
2013-05-18 22:16:00,60.0,46.9,30.09,NE,42,0.1,0.0,62,0.00,-RA,,0.00,WeatherDisplay:10.37,2013-05-19 02:16:00,
2013-05-18 22:21:00,59.8,46.3,30.09,NNE,33,1.3,3.0,61,0.00,-RA,,0.00,WeatherDisplay:10.37,2013-05-19 02:21:00,
2013-05-18 22:26:00,59.6,46.6,30.09,NE,36,0.0,0.0,62,0.00,-RA,,0.00,WeatherDisplay:10.37,2013-05-19 02:26:00,
2013-05-18 22:31:00,59.4,46.4,30.09,NE,42,0.0,2.3,62,0.00,-RA,,0.00,WeatherDisplay:10.37,2013-05-19 02:31:00,
2013-05-18 22:36:00,59.1,46.5,30.09,NE,44,0.0,1.2,63,0.00,-RA,,0.00,WeatherDisplay:10.37,2013-05-19 02:36:00,
2013-05-18 22:41:00,59.0,46.4,30.08,NE,44,0.0,0.0,63,0.00,BKN,,0.00,WeatherDisplay:10.37,2013-05-19 02:41:00,
2013-05-18 22:46:00,59.0,46.0,30.08,NE,44,1.4,3.5,62,0.00,BKN,,0.00,WeatherDisplay:10.37,2013-05-19 02:46:00,
2013-05-18 22:51:00,59.0,46.4,30.08,NE,44,0.0,1.2,63,0.00,BKN,,0.00,WeatherDisplay:10.37,2013-05-19 02:51:00,
2013-05-18 22:56:00,59.0,46.4,30.08,NE,44,1.0,3.0,63,0.00,BKN,,0.00,WeatherDisplay:10.37,2013-05-19 02:56:00,
2013-05-18 23:01:00,58.8,47.1,30.08,NE,44,0.2,2.3,65,0.00,BKN,,0.00,WeatherDisplay:10.37,2013-05-19 03:01:00,
2013-05-18 23:06:00,58.6,46.9,30.08,NE,44,0.6,2.3,65,0.00,BKN,,0.00,WeatherDisplay:10.37,2013-05-19 03:06:00,
2013-05-18 23:11:00,58.4,46.3,30.08,NE,44,0.0,0.0,64,0.00,BKN,,0.00,WeatherDisplay:10.37,2013-05-19 03:11:00,
2013-05-18 23:16:00,58.2,46.5,30.08,NE,44,0.0,0.0,65,0.00,BKN,,0.00,WeatherDisplay:10.37,2013-05-19 03:16:00,
2013-05-18 23:21:00,58.1,46.8,30.08,NE,44,0.0,0.0,66,0.00,BKN,,0.00,WeatherDisplay:10.37,2013-05-19 03:21:00,
2013-05-18 23:26:00,57.9,47.0,30.08,NE,44,0.0,2.0,67,0.00,BKN,,0.00,WeatherDisplay:10.37,2013-05-19 03:26:00,
2013-05-18 23:31:00,57.6,46.7,30.07,NE,44,0.0,0.0,67,0.00,BKN,,0.00,WeatherDisplay:10.37,2013-05-19 03:31:00,
2013-05-18 23:36:00,57.4,46.5,30.08,NE,44,0.0,2.0,67,0.00,BKN,,0.00,WeatherDisplay:10.37,2013-05-19 03:36:00,
2013-05-18 23:41:00,57.2,46.7,30.07,NE,46,0.0,0.0,68,0.00,BKN,,0.00,WeatherDisplay:10.37,2013-05-19 03:41:00,
2013-05-18 23:46:00,57.1,46.6,30.07,NE,46,0.0,0.0,68,0.00,BKN,,0.00,WeatherDisplay:10.37,2013-05-19 03:46:00,
2013-05-18 23:51:00,56.9,46.4,30.07,NE,45,0.0,0.0,68,0.00,BKN,,0.00,WeatherDisplay:10.37,2013-05-19 03:51:00,
2013-05-18 23:56:00,56.8,46.0,30.07,NE,46,0.1,0.0,67,0.00,BKN,,0.00,WeatherDisplay:10.37,2013-05-19 03:56:00,